Weather History for Whitefield, NH

Change the Weather History Date:

Tuesday, December 24, 2013

  Actual Average Record
Temperature  
Mean Temperature 19 °F -  
Max Temperature 30 °F 27 °F 51 °F (2003)
Min Temperature 8 °F 7 °F -9 °F (2000)
Degree Days  
Heating Degree Days 46    
Moisture  
Dew Point 12 °F    
Average Humidity 68    
Maximum Humidity 78    
Minimum Humidity 55    
Precipitation  
Precipitation 0.00 in - - ()
Sea Level Pressure  
Sea Level Pressure 30.14 in    
Wind  
Wind Speed 6 mph (WNW)    
Max Wind Speed 13 mph    
Max Gust Speed 20 mph    
Visibility 10 miles    
Events      
Averages and records for this station are not official NWS values.
T = Trace of Precipitation, MM = Missing Value Source: NWS Daily Summary

Daily Weather History Graph

Daily Weather History Graph

Search for Another Location

Airport:

Trip Planner

Search our weather history database for the weather conditions in past years. The results will help you decide how hot, cold, wet, or windy it might be!

Date:

Astronomy

Dec. 24, 2013 Rise Set
Actual Time 7:20 AM EST 4:11 PM EST
Civil Twilight 6:47 AM EST 4:44 PM EST
Nautical Twilight 6:10 AM EST 5:21 PM EST
Astronomical Twilight 5:34 AM EST 5:57 PM EST
Moon 11:32 PM EST (12/24) 10:58 AM EST (12/24)
Length of Visible Light 9h 57m
Length of Day
8h 50m
Waning Gibbous, 59% of the Moon is Illuminated
Dec 24
Waning Gibbous
Dec 25
Last Quarter
Jan 1
New
Jan 7
First Quarter
Jan 15
Full

Hourly Weather History & Observations

Time (EST) Temp. Windchill Dew Point Humidity Pressure Visibility Wind Dir Wind Speed Gust Speed Precip Events Conditions
12:52 AM 30.0 °F 24.1 °F 21.0 °F 69% 30.12 in 10.0 mi West 5.8 mph - N/A   Overcast
1:34 AM 28.9 °F 21.1 °F 21.0 °F 72% 30.07 in 10.0 mi WNW 8.1 mph - N/A   Overcast
1:52 AM 28.9 °F 21.9 °F 19.9 °F 69% 30.13 in 10.0 mi WNW 6.9 mph - N/A   Overcast
2:18 AM 28.9 °F 22.8 °F 19.0 °F 67% 30.09 in 10.0 mi West 5.8 mph - N/A   Mostly Cloudy
2:42 AM 28.0 °F 21.7 °F 19.0 °F 69% 30.10 in 10.0 mi WNW 5.8 mph - N/A   Overcast
2:52 AM 28.0 °F 20.8 °F 19.0 °F 69% 30.15 in 10.0 mi West 6.9 mph - N/A   Overcast
3:00 AM 28.0 °F 20.0 °F 18.0 °F 66% 30.10 in 10.0 mi West 8.1 mph - N/A   Overcast
3:52 AM 26.1 °F 20.5 °F 17.1 °F 69% 30.14 in 10.0 mi WNW 4.6 mph - N/A   Mostly Cloudy
4:17 AM 25.0 °F 19.3 °F 17.1 °F 72% 30.09 in 10.0 mi West 4.6 mph - N/A   Overcast
4:52 AM 25.0 °F 16.3 °F 18.0 °F 75% 30.15 in 10.0 mi WNW 8.1 mph - N/A   Overcast
5:52 AM 23.0 °F 15.8 °F 17.1 °F 78% 30.16 in 10.0 mi West 5.8 mph - N/A   Mostly Cloudy
6:52 AM 21.9 °F 13.4 °F 15.1 °F 75% 30.17 in 10.0 mi WNW 6.9 mph - N/A   Overcast
7:52 AM 21.0 °F 11.4 °F 15.1 °F 78% 30.17 in 10.0 mi West 8.1 mph - N/A   Overcast
8:52 AM 19.9 °F 12.1 °F 12.9 °F 74% 30.16 in 9.0 mi West 5.8 mph - N/A   Overcast
9:38 AM 21.0 °F 14.6 °F 10.9 °F 65% 30.10 in 10.0 mi WNW 4.6 mph - N/A   Scattered Clouds
9:52 AM 21.0 °F - 12.0 °F 68% 30.15 in 10.0 mi Calm Calm - N/A   Partly Cloudy
10:27 AM 21.0 °F 14.6 °F 12.0 °F 68% 30.10 in 10.0 mi West 4.6 mph - N/A   Mostly Cloudy
10:52 AM 21.9 °F 15.7 °F 12.0 °F 66% 30.14 in 10.0 mi West 4.6 mph - N/A   Overcast
11:26 AM 21.9 °F 12.5 °F 10.9 °F 63% 30.08 in 10.0 mi NW 8.1 mph - N/A   Scattered Clouds
11:52 AM 21.9 °F 12.5 °F 10.9 °F 63% 30.12 in 10.0 mi NW 8.1 mph - N/A   Partly Cloudy
12:52 PM 23.0 °F 15.8 °F 10.0 °F 58% 30.09 in 10.0 mi WNW 5.8 mph - N/A   Partly Cloudy
1:52 PM 24.1 °F 17.0 °F 10.0 °F 55% 30.08 in 10.0 mi Variable 5.8 mph - N/A   Partly Cloudy
2:52 PM 23.0 °F 11.1 °F 9.0 °F 55% 30.09 in 10.0 mi West 12.7 mph 19.6 mph N/A   Clear
3:52 PM 19.9 °F 9.3 °F 8.1 °F 60% 30.11 in 10.0 mi WNW 9.2 mph - N/A   Clear
4:52 PM 18.0 °F 7.7 °F 8.1 °F 65% 30.14 in 10.0 mi NW 8.1 mph - N/A   Clear
5:52 PM 15.1 °F 7.7 °F 7.0 °F 70% 30.15 in 10.0 mi NNW 4.6 mph - N/A   Clear
6:52 PM 15.1 °F 7.7 °F 8.1 °F 74% 30.17 in 10.0 mi West 4.6 mph - N/A   Scattered Clouds
7:31 PM 14.0 °F 6.5 °F 6.1 °F 71% 30.13 in 10.0 mi West 4.6 mph - N/A   Mostly Cloudy
7:52 PM 12.9 °F 1.6 °F 5.0 °F 71% 30.20 in 10.0 mi WSW 8.1 mph - N/A   Overcast
8:52 PM 10.9 °F 1.4 °F 3.0 °F 70% 30.22 in 10.0 mi WSW 5.8 mph - N/A   Overcast
9:52 PM 10.0 °F -0.9 °F -0.0 °F 64% 30.24 in 10.0 mi NW 6.9 mph - N/A   Overcast
10:52 PM 8.1 °F -3.2 °F -2.0 °F 64% 30.25 in 10.0 mi WNW 6.9 mph - N/A   Overcast
11:52 PM 8.1 °F -5.3 °F -2.0 °F 64% 30.27 in 10.0 mi WNW 9.2 mph - N/A   Overcast